Time,TemperatureF,DewpointF,PressureIn,WindDirection,WindDirectionDegrees,WindSpeedMPH,WindSpeedGustMPH,Humidity,HourlyPrecipIn,Conditions,Clouds,dailyrainin,SolarRadiationWatts/m^2,SoftwareType,DateUTC
2013-01-08 00:02:00,36.0,15.0,-100.00,WSW,242,5.0,10.0,42,0.00,,,0.00,0.000000,,2013-01-08 07:02:00,
2013-01-08 00:12:00,36.0,15.0,-100.00,WSW,242,5.0,10.0,42,0.00,,,0.00,0.000000,,2013-01-08 07:12:00,
2013-01-08 00:32:00,36.0,13.0,-100.00,SW,217,5.0,11.0,39,0.00,,,0.00,0.000000,,2013-01-08 07:32:00,
2013-01-08 00:42:00,36.0,13.0,-100.00,SW,217,5.0,11.0,39,0.00,,,0.00,0.000000,,2013-01-08 07:42:00,
2013-01-08 00:52:00,36.0,13.0,-100.00,SW,217,5.0,11.0,39,0.00,,,0.00,0.000000,,2013-01-08 07:52:00,
2013-01-08 01:02:00,36.0,13.0,-100.00,SW,217,5.0,11.0,39,0.00,,,0.00,0.000000,,2013-01-08 08:02:00,
2013-01-08 01:12:00,36.0,13.0,-100.00,SW,217,5.0,11.0,39,0.00,,,0.00,0.000000,,2013-01-08 08:12:00,
2013-01-08 01:42:00,35.0,14.0,-100.00,NNW,343,2.0,10.0,41,0.00,,,0.00,0.000000,,2013-01-08 08:42:00,
2013-01-08 01:53:00,35.0,14.0,-100.00,NNW,343,2.0,10.0,41,0.00,,,0.00,0.000000,,2013-01-08 08:53:00,
2013-01-08 02:02:00,35.0,14.0,-100.00,NNW,343,2.0,10.0,41,0.00,,,0.00,0.000000,,2013-01-08 09:02:00,
2013-01-08 02:12:00,35.0,14.0,-100.00,NNW,343,2.0,10.0,41,0.00,,,0.00,0.000000,,2013-01-08 09:12:00,
2013-01-08 02:33:00,34.0,13.0,-100.00,West,271,5.0,14.0,42,0.00,,,0.00,0.000000,,2013-01-08 09:33:00,
2013-01-08 02:42:00,34.0,13.0,-100.00,West,271,5.0,14.0,42,0.00,,,0.00,0.000000,,2013-01-08 09:42:00,
2013-01-08 02:52:00,34.0,13.0,-100.00,West,271,5.0,14.0,42,0.00,,,0.00,0.000000,,2013-01-08 09:52:00,
2013-01-08 03:02:00,34.0,13.0,-100.00,West,271,5.0,14.0,42,0.00,,,0.00,0.000000,,2013-01-08 10:02:00,
2013-01-08 03:12:00,34.0,13.0,-100.00,West,271,5.0,14.0,42,0.00,,,0.00,0.000000,,2013-01-08 10:12:00,
2013-01-08 03:33:00,34.0,14.0,-100.00,WNW,285,6.0,16.0,43,0.00,,,0.00,0.000000,,2013-01-08 10:33:00,
2013-01-08 03:42:00,34.0,14.0,-100.00,WNW,285,6.0,16.0,43,0.00,,,0.00,0.000000,,2013-01-08 10:42:00,
2013-01-08 03:52:00,34.0,14.0,-100.00,WNW,285,6.0,16.0,43,0.00,,,0.00,0.000000,,2013-01-08 10:52:00,
2013-01-08 04:02:00,34.0,14.0,-100.00,WNW,285,6.0,16.0,43,0.00,,,0.00,0.000000,,2013-01-08 11:02:00,
2013-01-08 04:12:00,34.0,14.0,-100.00,WNW,285,6.0,16.0,43,0.00,,,0.00,0.000000,,2013-01-08 11:12:00,
2013-01-08 04:33:00,32.0,14.0,-100.00,SSW,203,9.0,13.0,47,0.00,,,0.00,0.000000,,2013-01-08 11:33:00,
2013-01-08 04:42:00,32.0,14.0,-100.00,SSW,203,9.0,13.0,47,0.00,,,0.00,0.000000,,2013-01-08 11:42:00,
2013-01-08 04:53:00,32.0,14.0,-100.00,SSW,203,9.0,13.0,47,0.00,,,0.00,0.000000,,2013-01-08 11:53:00,
2013-01-08 05:02:00,32.0,14.0,-100.00,SSW,203,9.0,13.0,47,0.00,,,0.00,0.000000,,2013-01-08 12:02:00,
2013-01-08 05:12:00,32.0,14.0,-100.00,SSW,203,9.0,13.0,47,0.00,,,0.00,0.000000,,2013-01-08 12:12:00,
2013-01-08 05:33:00,29.0,14.0,-100.00,SW,220,11.0,17.0,52,0.00,,,0.00,0.000000,,2013-01-08 12:33:00,
2013-01-08 05:43:00,29.0,14.0,-100.00,SW,220,11.0,17.0,52,0.00,,,0.00,0.000000,,2013-01-08 12:43:00,
2013-01-08 05:53:00,29.0,14.0,-100.00,SW,220,11.0,17.0,52,0.00,,,0.00,0.000000,,2013-01-08 12:53:00,
2013-01-08 06:03:00,29.0,14.0,-100.00,SW,220,11.0,17.0,52,0.00,,,0.00,0.000000,,2013-01-08 13:03:00,
2013-01-08 06:12:00,29.0,14.0,-100.00,SW,220,11.0,17.0,52,0.00,,,0.00,0.000000,,2013-01-08 13:12:00,
2013-01-08 06:33:00,31.0,15.0,-100.00,SW,221,12.0,21.0,51,0.00,,,0.00,0.000000,,2013-01-08 13:33:00,
2013-01-08 06:43:00,31.0,15.0,-100.00,SW,221,12.0,21.0,51,0.00,,,0.00,0.000000,,2013-01-08 13:43:00,
2013-01-08 06:53:00,31.0,15.0,-100.00,SW,221,12.0,21.0,51,0.00,,,0.00,0.000000,,2013-01-08 13:53:00,
2013-01-08 07:02:00,31.0,15.0,-100.00,SW,221,12.0,21.0,51,0.00,,,0.00,0.000000,,2013-01-08 14:02:00,
2013-01-08 07:12:00,31.0,15.0,-100.00,SW,221,12.0,21.0,51,0.00,,,0.00,0.000000,,2013-01-08 14:12:00,
2013-01-08 07:43:00,31.0,16.0,-100.00,West,272,4.0,16.0,54,0.00,,,0.00,0.000000,,2013-01-08 14:43:00,
2013-01-08 07:53:00,31.0,16.0,-100.00,West,272,4.0,16.0,54,0.00,,,0.00,0.000000,,2013-01-08 14:53:00,
2013-01-08 08:03:00,31.0,16.0,-100.00,West,272,4.0,16.0,54,0.00,,,0.00,0.000000,,2013-01-08 15:03:00,
2013-01-08 08:12:00,31.0,16.0,-100.00,West,272,4.0,16.0,54,0.00,,,0.00,0.000000,,2013-01-08 15:12:00,
2013-01-08 08:33:00,34.0,19.0,-100.00,West,278,5.0,12.0,53,0.00,,,0.00,9.000000,,2013-01-08 15:33:00,
2013-01-08 08:43:00,34.0,19.0,-100.00,West,278,5.0,12.0,53,0.00,,,0.00,9.000000,,2013-01-08 15:43:00,
2013-01-08 08:53:00,34.0,19.0,-100.00,West,278,5.0,12.0,53,0.00,,,0.00,9.000000,,2013-01-08 15:53:00,
2013-01-08 09:03:00,34.0,19.0,-100.00,West,278,5.0,12.0,53,0.00,,,0.00,9.000000,,2013-01-08 16:03:00,
2013-01-08 09:12:00,34.0,19.0,-100.00,West,278,5.0,12.0,53,0.00,,,0.00,9.000000,,2013-01-08 16:12:00,
2013-01-08 09:13:00,44.0,21.0,-100.00,West,277,8.0,16.0,39,0.00,,,0.00,152.000000,,2013-01-08 16:13:00,
2013-01-08 09:34:00,44.0,21.0,-100.00,West,277,8.0,16.0,39,0.00,,,0.00,152.000000,,2013-01-08 16:34:00,
2013-01-08 09:43:00,44.0,21.0,-100.00,West,277,8.0,16.0,39,0.00,,,0.00,152.000000,,2013-01-08 16:43:00,
2013-01-08 09:53:00,44.0,21.0,-100.00,West,277,8.0,16.0,39,0.00,,,0.00,152.000000,,2013-01-08 16:53:00,
2013-01-08 10:03:00,44.0,21.0,-100.00,West,277,8.0,16.0,39,0.00,,,0.00,152.000000,,2013-01-08 17:03:00,
2013-01-08 10:13:00,44.0,21.0,-100.00,WNW,303,10.0,22.0,39,0.00,,,0.00,330.000000,,2013-01-08 17:13:00,
2013-01-08 10:43:00,44.0,21.0,-100.00,WNW,303,10.0,22.0,39,0.00,,,0.00,330.000000,,2013-01-08 17:43:00,
2013-01-08 10:54:00,44.0,21.0,-100.00,WNW,303,10.0,22.0,39,0.00,,,0.00,330.000000,,2013-01-08 17:54:00,
2013-01-08 11:03:00,44.0,21.0,-100.00,WNW,303,10.0,22.0,39,0.00,,,0.00,330.000000,,2013-01-08 18:03:00,
2013-01-08 11:33:00,43.0,20.0,-100.00,WSW,258,9.0,21.0,40,0.00,,,0.00,379.000000,,2013-01-08 18:33:00,
2013-01-08 11:43:00,43.0,20.0,-100.00,WSW,258,9.0,21.0,40,0.00,,,0.00,379.000000,,2013-01-08 18:43:00,
2013-01-08 11:53:00,43.0,20.0,-100.00,WSW,258,9.0,21.0,40,0.00,,,0.00,379.000000,,2013-01-08 18:53:00,
2013-01-08 12:03:00,43.0,20.0,-100.00,WSW,258,9.0,21.0,40,0.00,,,0.00,379.000000,,2013-01-08 19:03:00,
2013-01-08 12:12:00,43.0,20.0,-100.00,WSW,258,9.0,21.0,40,0.00,,,0.00,379.000000,,2013-01-08 19:12:00,
2013-01-08 12:43:00,41.0,20.0,-100.00,SSW,204,10.0,17.0,43,0.00,,,0.00,459.000000,,2013-01-08 19:43:00,
2013-01-08 12:53:00,41.0,20.0,-100.00,SSW,204,10.0,17.0,43,0.00,,,0.00,459.000000,,2013-01-08 19:53:00,
2013-01-08 13:03:00,41.0,20.0,-100.00,SSW,204,10.0,17.0,43,0.00,,,0.00,459.000000,,2013-01-08 20:03:00,
2013-01-08 13:12:00,41.0,20.0,-100.00,SSW,204,10.0,17.0,43,0.00,,,0.00,459.000000,,2013-01-08 20:12:00,
2013-01-08 13:33:00,44.0,21.0,-100.00,SW,234,8.0,18.0,40,0.00,,,0.00,588.000000,,2013-01-08 20:33:00,
2013-01-08 13:43:00,44.0,21.0,-100.00,SW,234,8.0,18.0,40,0.00,,,0.00,588.000000,,2013-01-08 20:43:00,
2013-01-08 13:54:00,44.0,21.0,-100.00,SW,234,8.0,18.0,40,0.00,,,0.00,588.000000,,2013-01-08 20:54:00,
2013-01-08 14:03:00,44.0,21.0,-100.00,SW,234,8.0,18.0,40,0.00,,,0.00,588.000000,,2013-01-08 21:03:00,
2013-01-08 14:12:00,44.0,21.0,-100.00,SW,234,8.0,18.0,40,0.00,,,0.00,588.000000,,2013-01-08 21:12:00,
2013-01-08 14:43:00,43.0,20.0,-100.00,WSW,247,6.0,17.0,40,0.00,,,0.00,390.000000,,2013-01-08 21:43:00,
2013-01-08 14:53:00,43.0,20.0,-100.00,WSW,247,6.0,17.0,40,0.00,,,0.00,390.000000,,2013-01-08 21:53:00,
2013-01-08 15:03:00,43.0,20.0,-100.00,WSW,247,6.0,17.0,40,0.00,,,0.00,390.000000,,2013-01-08 22:03:00,
2013-01-08 15:12:00,43.0,20.0,-100.00,WSW,247,6.0,17.0,40,0.00,,,0.00,390.000000,,2013-01-08 22:12:00,
2013-01-08 15:33:00,42.0,19.0,-100.00,West,277,10.0,27.0,39,0.00,,,0.00,293.000000,,2013-01-08 22:33:00,
2013-01-08 15:43:00,42.0,19.0,-100.00,West,277,10.0,27.0,39,0.00,,,0.00,293.000000,,2013-01-08 22:43:00,
2013-01-08 15:53:00,42.0,19.0,-100.00,West,277,10.0,27.0,39,0.00,,,0.00,293.000000,,2013-01-08 22:53:00,
2013-01-08 16:02:00,42.0,19.0,-100.00,West,277,10.0,27.0,39,0.00,,,0.00,293.000000,,2013-01-08 23:02:00,
2013-01-08 16:12:00,42.0,19.0,-100.00,West,277,10.0,27.0,39,0.00,,,0.00,293.000000,,2013-01-08 23:12:00,
2013-01-08 16:33:00,40.0,16.0,-100.00,WNW,287,9.0,24.0,38,0.00,,,0.00,131.000000,,2013-01-08 23:33:00,
2013-01-08 16:43:00,40.0,16.0,-100.00,WNW,287,9.0,24.0,38,0.00,,,0.00,131.000000,,2013-01-08 23:43:00,
2013-01-08 16:53:00,40.0,16.0,-100.00,WNW,287,9.0,24.0,38,0.00,,,0.00,131.000000,,2013-01-08 23:53:00,
2013-01-08 17:03:00,40.0,16.0,-100.00,WNW,287,9.0,24.0,38,0.00,,,0.00,131.000000,,2013-01-09 00:03:00,
2013-01-08 17:12:00,40.0,16.0,-100.00,WNW,287,9.0,24.0,38,0.00,,,0.00,131.000000,,2013-01-09 00:12:00,
2013-01-08 17:43:00,39.0,15.0,-100.00,WNW,285,7.0,19.0,37,0.00,,,0.00,4.000000,,2013-01-09 00:43:00,
2013-01-08 17:53:00,39.0,15.0,-100.00,WNW,285,7.0,19.0,37,0.00,,,0.00,4.000000,,2013-01-09 00:53:00,
2013-01-08 18:02:00,39.0,15.0,-100.00,WNW,285,7.0,19.0,37,0.00,,,0.00,4.000000,,2013-01-09 01:02:00,
2013-01-08 18:12:00,39.0,15.0,-100.00,WNW,285,7.0,19.0,37,0.00,,,0.00,4.000000,,2013-01-09 01:12:00,
2013-01-08 18:33:00,37.0,14.0,-100.00,WNW,299,7.0,19.0,39,0.00,,,0.00,0.000000,,2013-01-09 01:33:00,
2013-01-08 18:42:00,37.0,14.0,-100.00,WNW,299,7.0,19.0,39,0.00,,,0.00,0.000000,,2013-01-09 01:42:00,
2013-01-08 18:52:00,37.0,14.0,-100.00,WNW,299,7.0,19.0,39,0.00,,,0.00,0.000000,,2013-01-09 01:52:00,
2013-01-08 19:02:00,37.0,14.0,-100.00,WNW,299,7.0,19.0,39,0.00,,,0.00,0.000000,,2013-01-09 02:02:00,
2013-01-08 19:12:00,37.0,14.0,-100.00,WNW,299,7.0,19.0,39,0.00,,,0.00,0.000000,,2013-01-09 02:12:00,
2013-01-08 19:33:00,36.0,15.0,-100.00,West,274,4.0,19.0,41,0.00,,,0.00,0.000000,,2013-01-09 02:33:00,
2013-01-08 19:43:00,36.0,15.0,-100.00,West,274,4.0,19.0,41,0.00,,,0.00,0.000000,,2013-01-09 02:43:00,
2013-01-08 19:53:00,36.0,15.0,-100.00,West,274,4.0,19.0,41,0.00,,,0.00,0.000000,,2013-01-09 02:53:00,
2013-01-08 20:03:00,36.0,15.0,-100.00,West,274,4.0,19.0,41,0.00,,,0.00,0.000000,,2013-01-09 03:03:00,
2013-01-08 20:12:00,36.0,15.0,-100.00,West,274,4.0,19.0,41,0.00,,,0.00,0.000000,,2013-01-09 03:12:00,
2013-01-08 20:33:00,32.0,15.0,-100.00,South,186,2.0,8.0,50,0.00,,,0.00,0.000000,,2013-01-09 03:33:00,
2013-01-08 20:43:00,32.0,15.0,-100.00,South,186,2.0,8.0,50,0.00,,,0.00,0.000000,,2013-01-09 03:43:00,
2013-01-08 20:53:00,32.0,15.0,-100.00,South,186,2.0,8.0,50,0.00,,,0.00,0.000000,,2013-01-09 03:53:00,
2013-01-08 21:02:00,32.0,15.0,-100.00,South,186,2.0,8.0,50,0.00,,,0.00,0.000000,,2013-01-09 04:02:00,
2013-01-08 21:12:00,32.0,15.0,-100.00,South,186,2.0,8.0,50,0.00,,,0.00,0.000000,,2013-01-09 04:12:00,
2013-01-08 21:33:00,30.0,16.0,-100.00,SSW,200,6.0,9.0,56,0.00,,,0.00,0.000000,,2013-01-09 04:33:00,
2013-01-08 21:43:00,30.0,16.0,-100.00,SSW,200,6.0,9.0,56,0.00,,,0.00,0.000000,,2013-01-09 04:43:00,
2013-01-08 21:52:00,30.0,16.0,-100.00,SSW,200,6.0,9.0,56,0.00,,,0.00,0.000000,,2013-01-09 04:52:00,
2013-01-08 22:03:00,30.0,16.0,-100.00,SSW,200,6.0,9.0,56,0.00,,,0.00,0.000000,,2013-01-09 05:03:00,
2013-01-08 22:12:00,30.0,16.0,-100.00,SSW,200,6.0,9.0,56,0.00,,,0.00,0.000000,,2013-01-09 05:12:00,
2013-01-08 22:33:00,29.0,16.0,-100.00,SSW,209,2.0,11.0,59,0.00,,,0.00,0.000000,,2013-01-09 05:33:00,
2013-01-08 22:43:00,29.0,16.0,-100.00,SSW,209,2.0,11.0,59,0.00,,,0.00,0.000000,,2013-01-09 05:43:00,
2013-01-08 22:53:00,29.0,16.0,-100.00,SSW,209,2.0,11.0,59,0.00,,,0.00,0.000000,,2013-01-09 05:53:00,
2013-01-08 23:02:00,29.0,16.0,-100.00,SSW,209,2.0,11.0,59,0.00,,,0.00,0.000000,,2013-01-09 06:02:00,
2013-01-08 23:12:00,29.0,16.0,-100.00,SSW,209,2.0,11.0,59,0.00,,,0.00,0.000000,,2013-01-09 06:12:00,
2013-01-08 23:32:00,32.0,18.0,-100.00,South,183,2.0,10.0,56,0.00,,,0.00,0.000000,,2013-01-09 06:32:00,
2013-01-08 23:42:00,32.0,18.0,-100.00,South,183,2.0,10.0,56,0.00,,,0.00,0.000000,,2013-01-09 06:42:00,
2013-01-08 23:52:00,32.0,18.0,-100.00,South,183,2.0,10.0,56,0.00,,,0.00,0.000000,,2013-01-09 06:52:00,